913  
ASUS41 KOKX 281705  
RWROKX  
 
REGIONAL WEATHER ROUNDUP  
NATIONAL WEATHER SERVICE NEW YORK NY  
1200 PM EST FRI NOV 28 2014  
 
NOTE: "FAIR" INDICATES FEW OR NO CLOUDS BELOW 12,000 FEET WITH NO  
SIGNIFICANT WEATHER AND/OR S TO VISIBILITY
.  
 
NYZ071-072-176-178-NJZ106-104-281800-  
NEW YORK CITY METRO AREA  
 
 
CITY SKY/WX TMP DP RH WIND PRES REMARKS
 
CENTRAL PARK PTSUNNY 36 18 48 NW9 30.18F WCI 29  
LAGUARDIA APRT MOSUNNY 36 20 52 NW22 30.16F WCI 25  
KENNEDY INTL MOSUNNY 40 19 43 NW18G25 30.16F WCI 31  
NEWARK/LIBERTY PTSUNNY 36 19 50 NW13G22 30.17F WCI 27  
BRNX BOT. GARD N/A N/A N/A N/A NW10 30.16F  
TETERBORO SUNNY 35 19 52 NW17G26 30.16F WCI 25  

 
 
NYZ177-179-078>081-281800-  
LONG ISLAND NEW YORK  
 
CITY SKY/WX TMP DP RH WIND PRES REMARKS
 
FARMINGDALE MOSUNNY 39 18 42 NW14G24 30.14F WCI 31  
ISLIP MOSUNNY 38 21 50 NW16G28 30.10F WCI 29  
SHIRLEY SUNNY 38 21 50 NW21G28 30.12F WCI 28  
WESTHAMPTON SUNNY 38 20 48 N22G28 30.11F WCI 27  
MONTAUK POINT N/A 38 22 52 NW15G22 30.09F WCI 29  

 
 
NYZ052-065-067-281800-  
HUDSON VALLEY  
 
CITY SKY/WX TMP DP RH WIND PRES REMARKS
 
WHITE PLAINS MOSUNNY 34 21 59 NW15G23 30.12F WCI 24  
NEWBURGH PTSUNNY 32 23 69 W16 30.14F WCI 21  
MONTGOMERY SUNNY 32 19 58 W17G25 30.13F HAZE WCI 21  
POUGHKEEPSIE CLOUDY 34 19 54 NW7 30.14F WCI 28  
ALBANY PTSUNNY 30 16 56 NW8 30.15F WCI 22  

 
 
NJZ001-105-106-008-010-013-015-019>022-104-281800-  
NEW JERSEY  
 
CITY SKY/WX TMP DP RH WIND PRES REMARKS
 
NEWARK/LIBERTY PTSUNNY 36 19 50 NW13G22 30.17F WCI 27  
TETERBORO SUNNY 35 19 52 NW17G26 30.16F WCI 25  
CALDWELL CLOUDY 34 19 54 NW14G20 30.17F WCI 25  
MORRISTOWN MOSUNNY 34 21 60 NW17G25 30.17F WCI 23  
SOMERVILLE PTSUNNY 36 19 50 MISG 30.18F  
SUSSEX MOSUNNY 32 19 58 NW13G20 30.16F WCI 22  
ANDOVER N/A 32 17 54 MISG 30.17F  
TRENTON CLOUDY 35 20 54 NW14G24 30.19F WCI 26  
MILLVILLE CLOUDY 39 18 42 NW15G25 30.21F WCI 31  
ATLANTIC CITY MOSUNNY 39 20 46 NW16 30.19F WCI 30  
WRIGHTSTOWN PTSUNNY 38 20 48 NW15G22 30.17F WCI 29  
TOMS RIVER PTSUNNY 36 21 55 NW6 30.19F WCI 31  
BELMAR PTSUNNY 36 18 48 NW16 30.17F WCI 26  

 
 
PAZ047>061-062-071-281800-  
EASTERN PENNSYLVANIA  
 
CITY SKY/WX TMP DP RH WIND PRES REMARKS
 
PHILADELPHIA PTSUNNY 37 17 44 NW20G25 30.23F WCI 27  
ALLENTOWN PTSUNNY 33 13 43 W17G24 30.21F WCI 22  
SCRANTON CLOUDY 28 14 55 NW15G22 30.19F WCI 16  

 
 
CTZ002-004>006-009-010-012-RIZ004-006-007-MAZ004-011-015-281800-  
SOUTHERN NEW ENGLAND  
IN CT  
 
CITY SKY/WX TMP DP RH WIND PRES REMARKS
 
BRADLEY INTL MOSUNNY 35 19 52 NW12G22 30.10F WCI 27  
HARTFORD SUNNY 34 18 52 NW14G21 30.11F WCI 25  
DANBURY MOSUNNY 33 17 51 NW10G17 30.12F WCI 25  
WTRBRY/OXFORD NOT AVBL  
BRIDGEPORT MOSUNNY 38 20 48 NW15G22 30.12F WCI 29  
MERIDEN SUNNY 35 17 47 N17G25 30.11F WCI 25  
NEW HAVEN MOSUNNY 39 17 41 N16G24 30.11F WCI 30  
CHESTER FAIR 34 19 55 NW10G21 30.09S WCI 26  
GROTON SUNNY 37 21 52 NW16G26 30.08F WCI 28  
WILLIMANTIC MOSUNNY 36 23 59 NW8G20 30.09F WCI 30  
 
IN RI  
 
CITY SKY/WX TMP DP RH WIND PRES REMARKS
 
PROVIDENCE PTSUNNY 34 21 59 NW14G23 30.07F WCI 25  
BLOCK ISLAND CLOUDY 36 21 55 NW16 30.06S WCI 26  
WESTERLY MOSUNNY 36 22 56 N17G24 30.08F WCI 26  
 
IN MA  
 
CITY SKY/WX TMP DP RH WIND PRES REMARKS
 
BOSTON PTSUNNY 32 22 66 NW15G21 30.07S WCI 22  
WORCESTER MOSUNNY 29 22 75 NW14 30.02F WCI 18  
WESTFIELD MOSUNNY 33 19 56 NW9G20 30.10S WCI 25  
PROVINCETOWN CLOUDY 36 28 75 NW18G25 30.02S WCI 25  
NANTUCKET CLOUDY 35 28 75 NW25G35 30.00R WCI 23  

 
 
ANZ330-335-338-340-345-350-353-355-281800-  
COASTAL MARINE OBSERVATIONS  
 
 
STATION/POSITION TIME SKY/WX TEMP WIND PRES VSBY WAVE
 
AIR SEA DIR/SP/G HT/PER  
(UTC) (F) (DEG/KT/KT) (MB) (MI) (FT/S)  
NY HARB ENTRANCE 1700 37 54 320/ 19/ 25 1020.9 3/ 4  
4S FIRE IS 1700 52 N/A 3/10  
20S FIRE ISLAND 1700 37 54 330/ 19/ 23 1019.7 4/ 5  
23SW MTP 1700 N/A 5/ 5  
HUDSON CANYON 1700 40 58 320/ 21/ 29 1019.0 8/ 7  
EXECUTION ROCKS 1700 37 47 300/ 17/ 25 N/A  
WESTERN LI SOUND 1700 36 320/ 17/ 21 N/A 1/ 3  
CENTRAL LI SOUND 1600 36 50 330/ 17/ 23 N/A 3/ 3  
EASTERN LI SOUND 1600 38 52 330/ 16/ 19 N/A  
ROBBINS REEF 1700 35 320/ 13/ 17 1020.4  

 
 
>>>>>>>>>>>>>>>>>>>>>>>>>>>> KEY <<<<<<<<<<<<<<<<<<<<<<<<<<<  
> <  
> SKY/WX - SKY CONDITION/PRESENT WEATHER <  
> TMP - TEMPERATURE IN FAHRENHEIT <  
> DP - DEWPOINT IN FAHRENHEIT <  
> RH - RELATIVE HUMIDITY IN PERCENT <  
> WIND - DIRECTION AND SPEED IN MPH <  
> PRES - MEAN SEA LEVEL PRESSURE IN INCHES OF HG <  
> WCI - WIND CHILL INDEX <  
> VSB - VISIBILITY IN MILES <  
> HX - HEAT INDEX <  
> TC - TEMPERATURE IN CELSIUS <  
> VRB - VARIABLE WIND DIRECTION <  
> <  
>>>>>>>>>>>>>>>>>>>>>>>>>>>> KEY <<<<<<<<<<<<<<<<<<<<<<<<<<<  
 
CLICK HERE TO GO TO PREVIOUS BULLETINS.

The Nexlab NY Page
The Nexlab NJ Page
The Nexlab CT Page Main Text Page